TimeCDT,TemperatureF,Dew PointF,Humidity,Sea Level PressureIn,VisibilityMPH,Wind Direction,Wind SpeedMPH,Gust SpeedMPH,PrecipitationIn,Events,Conditions,WindDirDegrees,DateUTC
12:54 AM,44.1,28.9,55,30.34,10.0,North,8.1,-,N/A,,Clear,350,2012-10-05 05:54:00
1:54 AM,43.0,28.9,58,30.34,10.0,NNW,5.8,-,N/A,,Clear,330,2012-10-05 06:54:00
2:54 AM,41.0,28.9,62,30.35,10.0,NW,3.5,-,N/A,,Clear,310,2012-10-05 07:54:00
3:54 AM,39.9,28.9,65,30.34,10.0,NNW,4.6,-,N/A,,Clear,340,2012-10-05 08:54:00
4:54 AM,37.9,28.9,70,30.34,10.0,NNW,5.8,-,N/A,,Clear,330,2012-10-05 09:54:00
5:54 AM,36.0,28.0,73,30.33,10.0,NNW,6.9,-,N/A,,Clear,340,2012-10-05 10:54:00
6:54 AM,37.0,28.9,73,30.35,10.0,NNW,6.9,-,N/A,,Clear,340,2012-10-05 11:54:00
7:54 AM,37.0,28.9,73,30.35,10.0,NNW,6.9,-,N/A,,Scattered Clouds,340,2012-10-05 12:54:00
8:54 AM,39.0,30.9,73,30.36,10.0,NNW,6.9,-,N/A,,Overcast,330,2012-10-05 13:54:00
9:54 AM,42.1,30.0,62,30.35,10.0,North,9.2,-,N/A,,Mostly Cloudy,350,2012-10-05 14:54:00
10:54 AM,43.0,28.0,56,30.39,10.0,NNW,10.4,-,N/A,,Overcast,330,2012-10-05 15:54:00
11:54 AM,43.0,28.0,56,30.39,10.0,NNW,6.9,-,N/A,,Overcast,340,2012-10-05 16:54:00
12:54 PM,46.0,27.0,47,30.38,10.0,NNW,10.4,-,N/A,,Scattered Clouds,330,2012-10-05 17:54:00
1:54 PM,46.9,25.0,42,30.35,10.0,North,11.5,18.4,N/A,,Partly Cloudy,360,2012-10-05 18:54:00
2:54 PM,51.1,23.0,33,30.32,10.0,North,13.8,21.9,N/A,,Clear,350,2012-10-05 19:54:00
3:54 PM,52.0,21.0,30,30.30,10.0,North,10.4,-,N/A,,Clear,350,2012-10-05 20:54:00
4:54 PM,51.1,19.9,29,30.29,10.0,NNW,10.4,-,N/A,,Clear,340,2012-10-05 21:54:00
5:54 PM,52.0,19.9,28,30.30,10.0,North,10.4,-,N/A,,Clear,350,2012-10-05 22:54:00
6:54 PM,50.0,19.9,31,30.31,10.0,NW,9.2,-,N/A,,Clear,320,2012-10-05 23:54:00
7:54 PM,42.1,21.0,43,30.32,10.0,North,3.5,-,N/A,,Clear,350,2012-10-06 00:54:00
8:54 PM,39.0,21.0,49,30.33,10.0,Calm,Calm,-,N/A,,Clear,0,2012-10-06 01:54:00
9:54 PM,30.9,21.9,69,30.34,10.0,NNW,3.5,-,N/A,,Clear,330,2012-10-06 02:54:00
10:54 PM,35.1,23.0,61,30.37,10.0,Calm,Calm,-,N/A,,Clear,0,2012-10-06 03:54:00
11:54 PM,34.0,24.1,67,30.35,10.0,North,5.8,-,N/A,,Overcast,350,2012-10-06 04:54:00